[[{"header":{"parameterUnit":"m.s-1","parameterCategory":1,"la1":30.2991,"la2":30.254,"lo1":-89.0895,"lo2":-89.0444,"dy":0.0017,"dx":0.0017,"nx":28,"ny":28,"refTime":"2024-05-28T09:00:00:Z","depth":0,"parameterNumber":2,"parameterNumberName":"U-component_of_WINDS"},"data":[0,0,0,0,0,0,0,0,0,0,0,0,0,0,0,0,0,0,0,0,0,0,0,0,0,0,0,0,0,0,0,0,0,0,0,0,0,0,0,0,0,0,0,0,0,0,0,0,0,0,0,0,0,0,0,0,0,0,-1.241,-1.2408,0,-1.2241,-1.2239,-1.2237,-1.2147,-1.2147,-1.2147,-1.2146,-1.1971,-1.1967,-1.1963,0,0,0,0,0,0,0,0,0,0,0,0,0,-1.2653,-1.2649,-1.241,-1.2408,-1.2406,-1.2241,-1.2239,-1.2237,-1.2147,-1.2147,-1.2147,-1.2146,-1.1973,-1.1968,-1.1962,0,0,0,0,0,0,0,0,0,0,0,0,0,-1.2522,-1.2648,-1.241,-1.2341,-1.2333,-1.2242,-1.2239,-1.2236,-1.2147,-1.2147,-1.2147,-1.2146,-1.1975,-1.1968,-1.1961,-1.1925,0,0,-1.1941,-1.1938,0,0,0,0,0,0,0,0,-1.253,-1.2514,-1.2354,-1.2346,-1.2337,-1.2215,-1.226,-1.2132,-1.2147,-1.2218,-1.2146,-1.2146,-1.2052,-1.2039,-1.2008,-1.1917,-1.1909,-1.194,-1.1936,-1.1933,-1.1931,0,0,0,0,0,0,0,-1.2539,-1.252,-1.2343,-1.2351,-1.2341,-1.2318,-1.2299,-1.2236,-1.2139,-1.2212,-1.2205,-1.2186,-1.2048,-1.2015,-1.2003,-1.1907,-1.194,-1.1934,-1.193,-1.1928,-1.1777,-1.1777,0,0,0,0,0,0,-1.256,-1.2529,-1.2348,-1.2338,-1.2435,-1.2314,-1.2293,-1.2254,-1.2139,-1.2121,-1.2186,-1.2182,-1.2026,-1.2011,-1.1997,-1.1947,-1.1933,-1.1927,-1.1923,-1.1777,-1.1777,-1.1777,0,0,0,0,0,0,-1.2565,-1.2544,-1.2355,-1.2431,-1.2405,-1.231,-1.2267,-1.2251,-1.2218,-1.212,-1.2102,-1.2171,-1.2026,-1.2006,-1.1944,-1.1939,-1.1924,-1.1918,-1.1777,-1.1777,-1.1777,-1.1847,0,0,0,0,0,0,-1.2573,-1.2547,-1.2532,-1.2432,-1.2402,-1.2306,-1.2267,-1.2248,-1.2207,-1.22,-1.21,-1.2084,-1.2024,-1.1954,-1.1937,-1.193,-1.1912,-1.1777,-1.1777,-1.1777,-1.1844,-1.1849,-1.1853,0,0,0,0,0,-1.2582,-1.2558,-1.2532,-1.2511,-1.2382,-1.2306,-1.2288,-1.2221,-1.2207,-1.2191,-1.2128,-1.2087,-1.1943,-1.1949,-1.1928,-1.1919,-1.1777,-1.1777,-1.1777,-1.1842,-1.1848,-1.1853,0,0,0,0,0,0,-1.266,-1.2544,-1.2514,-1.2457,-1.2392,-1.2291,-1.2269,-1.2229,-1.2166,-1.2162,-1.208,-1.2059,-1.2004,-1.1955,-1.1964,-1.1878,-1.1855,-1.1852,-1.1912,-1.1917,-1.1921,-1.1934,-1.1907,0,0,0,0,0,-1.2671,-1.2619,-1.252,-1.248,-1.2449,-1.2365,-1.2329,-1.2283,-1.2212,-1.2184,-1.2116,-1.2048,-1.1988,-1.1949,-1.1888,-1.1837,-1.1814,-1.182,-1.1825,-1.1829,-1.1827,-1.1796,-1.1798,-1.1777,-1.1777,-1.1777,0,0,-1.2692,-1.2622,-1.2595,-1.2494,-1.2438,-1.2386,-1.2342,-1.2289,-1.2249,-1.2175,-1.2112,-1.206,-1.1979,-1.1923,-1.1894,-1.188,-1.1827,-1.1829,-1.1833,-1.1828,-1.1797,-1.1799,-1.1801,-1.1778,-1.1778,-1.1778,0,0,-1.2705,-1.2647,-1.2607,-1.2553,-1.2469,-1.2413,-1.2404,-1.2309,-1.2272,-1.2208,-1.2151,-1.2103,-1.2,-1.1945,-1.1903,-1.1896,-1.1856,-1.1879,-1.1902,-1.1873,-1.1875,-1.1876,-1.1874,-1.1874,-1.1876,-1.1877,-1.1877,0,-1.2742,-1.2662,-1.2592,-1.2542,-1.2499,-1.2431,-1.239,-1.234,-1.224,-1.2212,-1.2198,-1.2069,-1.2009,-1.1939,-1.1937,-1.1906,-1.1892,-1.1889,-1.1881,-1.1881,-1.1881,-1.1878,-1.1877,-1.188,-1.188,-1.1879,-1.1879,0,-1.2712,-1.2658,-1.2636,-1.2543,-1.2497,-1.2452,-1.2375,-1.2337,-1.2295,-1.2241,-1.2177,-1.2103,-1.2026,-1.2006,-1.1964,-1.1929,-1.1924,-1.1896,-1.1872,-1.1887,-1.1883,-1.1882,-1.1885,-1.1884,-1.1883,-1.1882,0,0,-1.2769,-1.2639,-1.2632,-1.2589,-1.2492,-1.2448,-1.24,-1.2326,-1.2295,-1.2229,-1.2187,-1.2102,-1.2076,-1.2029,-1.198,-1.1956,-1.1955,-1.1931,-1.1928,-1.1938,-1.1914,-1.1936,-1.1935,-1.1928,-1.1928,-1.1927,-1.1921,0,-1.2769,-1.268,-1.2615,-1.2551,-1.25,-1.2435,-1.2393,-1.2329,-1.2277,-1.2226,-1.2168,-1.211,-1.208,-1.2051,-1.2024,-1.1962,-1.195,-1.1961,-1.1888,-1.1886,-1.1911,-1.1933,-1.1955,-1.1953,-1.1919,-1.1918,-1.1918,0,-1.2756,-1.2693,-1.2625,-1.2534,-1.251,-1.2474,-1.2401,-1.2352,-1.2279,-1.2243,-1.2191,-1.2141,-1.2087,-1.2068,-1.1993,-1.2002,-1.1968,-1.1934,-1.1932,-1.1922,-1.1903,-1.1925,-1.195,-1.195,-1.1915,-1.1915,-1.1915,0,-1.2805,-1.2703,-1.2649,-1.2614,-1.2507,-1.2483,-1.2437,-1.2363,-1.2323,-1.2259,-1.2232,-1.2162,-1.2124,-1.2071,-1.2004,-1.1996,-1.1936,-1.1911,-1.1904,-1.1906,-1.1895,-1.1896,-1.1916,-1.1873,-1.1873,-1.1873,-1.1873,0,-1.2811,-1.2772,-1.267,-1.2637,-1.2591,-1.2517,-1.2473,-1.2421,-1.2356,-1.2312,-1.225,-1.221,-1.2123,-1.2072,-1.2018,-1.1964,-1.1947,-1.1917,-1.1903,-1.1923,-1.1927,-1.1899,-1.1898,-1.1873,-1.1873,-1.1873,-1.1873,0,-1.2858,-1.2788,-1.2725,-1.2629,-1.2604,-1.2575,-1.2492,-1.2457,-1.2403,-1.2347,-1.233,-1.2244,-1.218,-1.2108,-1.202,-1.1984,-1.1935,-1.1914,-1.196,-1.1952,-1.195,-1.1952,-1.1953,-1.195,-1.1909,-1.191,-1.191,0,-1.2867,-1.2835,-1.2736,-1.2703,-1.2659,-1.2605,-1.2564,-1.249,-1.2449,-1.2363,-1.2339,-1.2271,-1.2213,-1.2115,-1.2044,-1.1977,-1.1955,-1.196,-1.1944,-1.1965,-1.1955,-1.1959,-1.1955,-1.1965,-1.1965,-1.1966,-1.1967,0,-1.289,-1.2857,-1.2801,-1.2733,-1.2685,-1.2628,-1.2567,-1.2543,-1.2457,-1.2415,-1.235,-1.2305,-1.2216,-1.2149,-1.2074,-1.2026,-1.1982,-1.1972,-1.1967,-1.1987,-1.2015,-1.2,-1.1973,-1.1972,-1.1972,-1.1971,-1.1971,-1.1971,-1.2918,-1.2887,-1.2813,-1.2752,-1.27,-1.2645,-1.2608,-1.2549,-1.2494,-1.2417,-1.2376,-1.2312,-1.2239,-1.2133,-1.2086,-1.2035,-1.202,-1.2013,-1.2011,-1.2011,-1.2016,-1.2023,-1.2021,-1.202,-1.202,-1.202,-1.202,0,-1.2938,-1.2888,-1.2833,-1.2751,-1.2704,-1.2667,-1.2599,-1.2561,-1.2506,-1.2442,-1.2386,-1.2312,-1.2248,-1.2172,-1.2103,-1.2076,-1.2055,-1.2061,-1.2062,-1.2052,-1.2033,-1.2045,-1.208,-1.208,-1.208,-1.208,-1.208,-1.208,-1.2943,-1.289,-1.2848,-1.2768,-1.2717,-1.2654,-1.2619,-1.2568,-1.2517,-1.2437,-1.2383,-1.2335,-1.2266,-1.2192,-1.2131,-1.2111,-1.2088,-1.21,-1.2074,-1.2058,-1.2053,-1.2048,-1.2059,-1.2096,-1.2096,-1.2097,-1.2097,-1.2097]},{"header":{"parameterUnit":"m.s-1","parameterCategory":1,"la1":30.2991,"la2":30.254,"lo1":-89.0895,"lo2":-89.0444,"dy":0.0017,"dx":0.0017,"nx":28,"ny":28,"refTime":"2024-05-28T09:00:00:Z","depth":0,"parameterNumber":3,"parameterNumberName":"V-component_of_WINDS"},"data":[0,0,0,0,0,0,0,0,0,0,0,0,0,0,0,0,0,0,0,0,0,0,0,0,0,0,0,0,0,0,0,0,0,0,0,0,0,0,0,0,0,0,0,0,0,0,0,0,0,0,0,0,0,0,0,0,0,0,0.211,0.211,0,0.2076,0.2076,0.2076,0.204,0.204,0.2039,0.2039,0.2004,0.2004,0.2003,0,0,0,0,0,0,0,0,0,0,0,0,0,0.2144,0.2143,0.211,0.211,0.2109,0.2077,0.2076,0.2076,0.204,0.2039,0.2039,0.2038,0.2004,0.2004,0.2003,0,0,0,0,0,0,0,0,0,0,0,0,0,0.2122,0.2143,0.211,0.2088,0.2085,0.2077,0.2076,0.2075,0.204,0.2039,0.2039,0.2038,0.2004,0.2004,0.2003,0.2014,0,0,0.2001,0.2001,0,0,0,0,0,0,0,0,0.2123,0.212,0.2091,0.2089,0.2087,0.2062,0.2075,0.2055,0.204,0.2057,0.2039,0.2038,0.2024,0.2022,0.2017,0.2012,0.2011,0.2001,0.2001,0.2,0.2,0,0,0,0,0,0,0,0.2124,0.2122,0.2097,0.2091,0.2088,0.2079,0.2075,0.2071,0.2045,0.2056,0.2053,0.205,0.2022,0.2018,0.2016,0.201,0.2001,0.2,0.2,0.2,0.2011,0.2012,0,0,0,0,0,0,0.2129,0.2123,0.2098,0.2096,0.2103,0.2079,0.2075,0.207,0.2045,0.2041,0.205,0.2048,0.2019,0.2017,0.2014,0.2024,0.2,0.2,0.1999,0.201,0.2011,0.2012,0,0,0,0,0,0,0.213,0.2128,0.2099,0.2109,0.2104,0.2079,0.2075,0.207,0.2065,0.2041,0.2036,0.205,0.2018,0.2015,0.2014,0.2022,0.1999,0.1999,0.201,0.2011,0.2012,0.2044,0,0,0,0,0,0,0.2131,0.2128,0.2132,0.2109,0.2104,0.2099,0.2075,0.207,0.2064,0.2061,0.204,0.2035,0.2018,0.2015,0.2013,0.2021,0.1998,0.2009,0.201,0.2011,0.2042,0.2046,0.2049,0,0,0,0,0,0.2133,0.2143,0.2132,0.2129,0.2108,0.21,0.2097,0.2076,0.2065,0.2068,0.2053,0.2036,0.2022,0.2015,0.2013,0.202,0.2008,0.201,0.2011,0.204,0.2045,0.2049,0,0,0,0,0,0,0.2167,0.2139,0.2127,0.213,0.2118,0.2094,0.2098,0.2083,0.2073,0.207,0.2045,0.2041,0.2042,0.2031,0.2024,0.2029,0.2013,0.2014,0.2035,0.204,0.2043,0.2045,0.1998,0,0,0,0,0,0.2175,0.2171,0.2147,0.2151,0.2146,0.2123,0.2119,0.2104,0.209,0.2084,0.2069,0.2056,0.2048,0.2044,0.2035,0.2041,0.2034,0.2044,0.2048,0.2051,0.2052,0.2052,0.2056,0.2017,0.2017,0.2017,0,0,0.2191,0.2176,0.2174,0.2158,0.2146,0.2142,0.2119,0.2115,0.2111,0.2084,0.2081,0.2069,0.2053,0.2054,0.2054,0.2045,0.2062,0.2053,0.2056,0.2055,0.2054,0.2058,0.2061,0.2018,0.2018,0.2018,0,0,0.2218,0.2207,0.2208,0.2197,0.218,0.2165,0.2166,0.2144,0.2135,0.2132,0.211,0.2106,0.2094,0.2083,0.2075,0.2098,0.2082,0.2096,0.2115,0.2115,0.2118,0.2121,0.2127,0.213,0.2098,0.2098,0.2098,0,0.224,0.2232,0.2211,0.2209,0.2201,0.2177,0.2178,0.2168,0.215,0.2145,0.2136,0.2119,0.2107,0.2104,0.211,0.2106,0.2104,0.2098,0.212,0.2122,0.2124,0.213,0.2132,0.2099,0.2099,0.2099,0.2099,0,0.226,0.2255,0.2258,0.224,0.2234,0.2234,0.2212,0.2208,0.2194,0.218,0.2176,0.2161,0.2148,0.2147,0.2133,0.2142,0.2137,0.2124,0.2107,0.213,0.2134,0.2137,0.2102,0.2101,0.2101,0.21,0,0,0.2306,0.2276,0.2277,0.2268,0.2248,0.2243,0.2242,0.223,0.2226,0.2214,0.2211,0.2202,0.2189,0.2181,0.2166,0.2167,0.2184,0.2154,0.2153,0.2158,0.2191,0.2199,0.2202,0.2174,0.2174,0.2174,0.2191,0,0.2327,0.2322,0.2303,0.2303,0.2298,0.2274,0.2272,0.2259,0.2246,0.224,0.2225,0.2218,0.2203,0.2198,0.2198,0.2182,0.219,0.2181,0.2169,0.2169,0.2172,0.2205,0.2214,0.223,0.2193,0.2194,0.2194,0,0.2351,0.234,0.234,0.2319,0.2316,0.2315,0.2301,0.2296,0.228,0.2271,0.2262,0.2245,0.2241,0.2227,0.222,0.2215,0.2209,0.2201,0.2201,0.2198,0.2182,0.22,0.2235,0.2237,0.2197,0.2197,0.2196,0,0.2382,0.2368,0.2365,0.2359,0.2335,0.2334,0.2324,0.2308,0.2302,0.229,0.2285,0.2274,0.2267,0.2259,0.2239,0.2231,0.2235,0.2219,0.2225,0.2226,0.2226,0.2226,0.2259,0.2226,0.2226,0.2226,0.2225,0,0.2407,0.2407,0.2379,0.2377,0.2376,0.2355,0.2355,0.2343,0.2329,0.2324,0.2304,0.2299,0.2275,0.2268,0.2253,0.2249,0.2247,0.2238,0.2233,0.2239,0.2239,0.2233,0.2231,0.2226,0.2226,0.2226,0.2226,0,0.244,0.2422,0.2417,0.2395,0.2389,0.2389,0.237,0.2367,0.2353,0.2347,0.2345,0.2323,0.2313,0.2293,0.2279,0.2269,0.2268,0.2261,0.2273,0.2269,0.2276,0.2275,0.2305,0.2307,0.2275,0.2275,0.2275,0,0.2456,0.2455,0.2433,0.2428,0.2419,0.2412,0.2405,0.2384,0.2378,0.236,0.236,0.2349,0.2338,0.2324,0.2307,0.2295,0.2287,0.2298,0.2285,0.229,0.2285,0.2284,0.2284,0.2301,0.2301,0.2301,0.2302,0,0.2485,0.2476,0.2467,0.2455,0.2448,0.2437,0.2426,0.2423,0.2399,0.2393,0.2383,0.2375,0.236,0.2349,0.2335,0.2324,0.2308,0.2306,0.2307,0.2311,0.2317,0.2312,0.2278,0.2305,0.2305,0.2305,0.2304,0.2304,0.2509,0.2507,0.2491,0.2481,0.2471,0.246,0.2456,0.2442,0.2433,0.2419,0.2407,0.2398,0.2382,0.2362,0.2352,0.2344,0.2336,0.2338,0.2338,0.2338,0.2339,0.232,0.2342,0.2342,0.2341,0.2341,0.2341,0,0.2536,0.2524,0.2516,0.25,0.2493,0.248,0.2466,0.2461,0.2453,0.244,0.243,0.2418,0.2407,0.2389,0.2377,0.2374,0.2366,0.2371,0.237,0.2367,0.2348,0.2347,0.2377,0.2377,0.2377,0.2377,0.2377,0.2377,0.2549,0.2544,0.2533,0.2523,0.2512,0.2502,0.2496,0.2486,0.2475,0.2463,0.2453,0.2442,0.2426,0.2412,0.2402,0.2396,0.2392,0.2399,0.2391,0.2372,0.2369,0.2366,0.2365,0.2398,0.2398,0.2411,0.2411,0.2411]}]]